Time,TemperatureF,DewpointF,PressureIn,WindDirection,WindDirectionDegrees,WindSpeedMPH,WindSpeedGustMPH,Humidity,HourlyPrecipIn,Conditions,Clouds,dailyrainin,SoftwareType,DateUTC
2013-02-13 06:12:00,66.0,55.0,30.09,ENE,76,10.0,18.0,68,0.00,,,0.03,,2013-02-13 16:12:00,
2013-02-13 06:21:00,66.0,55.0,30.09,ENE,76,10.0,18.0,68,0.00,,,0.03,,2013-02-13 16:21:00,
2013-02-13 06:32:00,66.0,56.0,30.09,ENE,72,8.0,16.0,70,0.00,,,0.03,,2013-02-13 16:32:00,
2013-02-13 06:42:00,66.0,56.0,30.09,ENE,72,8.0,16.0,70,0.00,,,0.03,,2013-02-13 16:42:00,
2013-02-13 06:52:00,66.0,56.0,30.10,NNE,29,8.0,16.0,70,0.00,,,0.03,,2013-02-13 16:52:00,
2013-02-13 07:01:00,66.0,56.0,30.10,NE,46,7.0,11.0,71,0.00,,,0.03,,2013-02-13 17:01:00,
2013-02-13 07:11:00,67.0,56.0,30.10,NNE,20,8.0,20.0,69,0.00,,,0.02,,2013-02-13 17:11:00,
2013-02-13 07:21:00,67.0,56.0,30.10,NNE,20,8.0,20.0,69,0.00,,,0.02,,2013-02-13 17:21:00,
2013-02-13 07:31:00,67.0,57.0,30.10,NE,53,6.0,18.0,70,0.00,,,0.02,,2013-02-13 17:31:00,
2013-02-13 07:41:00,67.0,57.0,30.10,NE,53,6.0,18.0,70,0.00,,,0.02,,2013-02-13 17:41:00,
2013-02-13 07:52:00,67.0,56.0,30.11,ENE,73,4.0,13.0,68,0.00,,,0.02,,2013-02-13 17:52:00,
2013-02-13 08:01:00,67.0,56.0,30.11,NNE,28,5.0,17.0,67,0.00,,,0.02,,2013-02-13 18:01:00,
2013-02-13 08:11:00,67.0,55.0,30.11,ENE,72,4.0,11.0,66,0.00,,,0.02,,2013-02-13 18:11:00,
2013-02-13 08:22:00,67.0,55.0,30.11,ENE,72,4.0,11.0,66,0.00,,,0.02,,2013-02-13 18:22:00,
2013-02-13 08:31:00,68.0,57.0,30.12,NE,52,7.0,13.0,68,0.00,,,0.02,,2013-02-13 18:31:00,
2013-02-13 08:41:00,68.0,57.0,30.12,NE,52,7.0,13.0,68,0.00,,,0.02,,2013-02-13 18:41:00,
2013-02-13 08:52:00,67.0,57.0,30.12,ENE,72,11.0,18.0,71,0.00,,,0.02,,2013-02-13 18:52:00,
2013-02-13 09:01:00,67.0,57.0,30.14,ENE,66,2.0,17.0,71,0.00,,,0.02,,2013-02-13 19:01:00,
2013-02-13 09:11:00,68.0,57.0,30.13,NNE,26,3.0,9.0,69,0.00,,,0.01,,2013-02-13 19:11:00,
2013-02-13 09:21:00,68.0,57.0,30.13,NNE,26,3.0,9.0,69,0.00,,,0.01,,2013-02-13 19:21:00,
2013-02-13 09:31:00,68.0,59.0,30.14,NE,44,5.0,8.0,72,0.00,,,0.01,,2013-02-13 19:31:00,
2013-02-13 09:41:00,68.0,59.0,30.14,NE,44,5.0,8.0,72,0.00,,,0.01,,2013-02-13 19:41:00,
2013-02-13 09:52:00,68.0,58.0,30.14,NNW,333,5.0,14.0,70,0.00,,,0.01,,2013-02-13 19:52:00,
2013-02-13 10:01:00,69.0,57.0,30.15,East,96,9.0,17.0,66,0.00,,,0.01,,2013-02-13 20:01:00,
2013-02-13 10:11:00,69.0,55.0,30.14,ENE,57,9.0,21.0,62,0.00,,,0.00,,2013-02-13 20:11:00,
2013-02-13 10:21:00,69.0,55.0,30.14,ENE,57,9.0,21.0,62,0.00,,,0.00,,2013-02-13 20:21:00,
2013-02-13 10:31:00,71.0,57.0,30.14,ENE,61,4.0,13.0,61,0.00,,,0.00,,2013-02-13 20:31:00,
2013-02-13 10:41:00,70.0,56.0,30.14,East,90,11.0,18.0,62,0.00,,,0.00,,2013-02-13 20:41:00,
2013-02-13 10:52:00,70.0,56.0,30.14,East,90,11.0,18.0,62,0.00,,,0.00,,2013-02-13 20:52:00,
2013-02-13 11:01:00,70.0,57.0,30.13,NE,45,8.0,15.0,64,0.00,,,0.00,,2013-02-13 21:01:00,
2013-02-13 11:11:00,70.0,57.0,30.13,NE,45,8.0,15.0,64,0.00,,,0.00,,2013-02-13 21:11:00,
2013-02-13 11:21:00,71.0,58.0,30.13,ENE,74,5.0,13.0,63,0.00,,,0.00,,2013-02-13 21:21:00,
2013-02-13 11:31:00,71.0,58.0,30.12,NNE,19,5.0,12.0,63,0.00,,,0.00,,2013-02-13 21:31:00,
2013-02-13 11:42:00,71.0,56.0,30.12,NE,46,8.0,19.0,60,0.00,,,0.00,,2013-02-13 21:42:00,
2013-02-13 11:52:00,71.0,56.0,30.12,NE,46,8.0,19.0,60,0.00,,,0.00,,2013-02-13 21:52:00,
2013-02-13 12:01:00,70.0,58.0,30.11,NE,55,5.0,13.0,66,0.00,,,0.00,,2013-02-13 22:01:00,
2013-02-13 12:11:00,70.0,58.0,30.11,East,88,10.0,16.0,65,0.00,,,0.00,,2013-02-13 22:11:00,
2013-02-13 12:21:00,70.0,58.0,30.11,East,88,10.0,16.0,65,0.00,,,0.00,,2013-02-13 22:21:00,
2013-02-13 12:31:00,70.0,57.0,30.10,NNW,329,4.0,13.0,64,0.00,,,0.00,,2013-02-13 22:31:00,
2013-02-13 12:42:00,70.0,57.0,30.10,NNW,329,4.0,13.0,64,0.00,,,0.00,,2013-02-13 22:42:00,
2013-02-13 12:51:00,71.0,57.0,30.10,NNE,18,6.0,14.0,61,0.00,,,0.00,,2013-02-13 22:51:00,
2013-02-13 13:01:00,70.0,57.0,30.09,East,82,7.0,19.0,63,0.00,,,0.00,,2013-02-13 23:01:00,
2013-02-13 13:11:00,70.0,57.0,30.08,NE,42,12.0,17.0,63,0.00,,,0.00,,2013-02-13 23:11:00,
2013-02-13 13:21:00,70.0,57.0,30.08,NE,42,12.0,17.0,63,0.00,,,0.00,,2013-02-13 23:21:00,
2013-02-13 13:31:00,72.0,58.0,30.07,NW,321,6.0,17.0,61,0.00,,,0.00,,2013-02-13 23:31:00,
2013-02-13 13:41:00,72.0,58.0,30.07,NW,321,6.0,17.0,61,0.00,,,0.00,,2013-02-13 23:41:00,
2013-02-13 13:52:00,70.0,58.0,30.06,NNE,14,8.0,22.0,65,0.00,,,0.00,,2013-02-13 23:52:00,
2013-02-13 14:01:00,71.0,58.0,30.06,NE,51,5.0,19.0,63,0.00,,,0.00,,2013-02-14 00:01:00,
2013-02-13 14:11:00,71.0,58.0,30.06,NE,51,5.0,19.0,63,0.00,,,0.00,,2013-02-14 00:11:00,
2013-02-13 14:21:00,70.0,57.0,30.05,ENE,63,10.0,18.0,64,0.00,,,0.00,,2013-02-14 00:21:00,
2013-02-13 14:31:00,71.0,58.0,30.04,ENE,75,3.0,8.0,64,0.00,,,0.00,,2013-02-14 00:31:00,
2013-02-13 14:41:00,71.0,58.0,30.04,ENE,75,3.0,8.0,64,0.00,,,0.00,,2013-02-14 00:41:00,
2013-02-13 14:52:00,70.0,58.0,30.04,North,349,6.0,13.0,65,0.00,,,0.00,,2013-02-14 00:52:00,
2013-02-13 15:01:00,70.0,59.0,30.03,NE,44,4.0,15.0,67,0.00,,,0.00,,2013-02-14 01:01:00,
2013-02-13 15:11:00,70.0,58.0,30.04,East,82,8.0,16.0,66,0.00,,,0.00,,2013-02-14 01:11:00,
2013-02-13 15:21:00,70.0,58.0,30.04,East,82,8.0,16.0,66,0.00,,,0.00,,2013-02-14 01:21:00,
2013-02-13 15:31:00,71.0,57.0,30.03,ENE,76,9.0,16.0,62,0.00,,,0.00,,2013-02-14 01:31:00,
2013-02-13 15:41:00,71.0,57.0,30.03,ENE,76,9.0,16.0,62,0.00,,,0.00,,2013-02-14 01:41:00,
2013-02-13 15:51:00,70.0,57.0,30.03,ENE,71,7.0,11.0,64,0.00,,,0.00,,2013-02-14 01:51:00,
2013-02-13 16:01:00,70.0,58.0,30.02,East,83,7.0,16.0,66,0.00,,,0.00,,2013-02-14 02:01:00,
2013-02-13 16:11:00,69.0,58.0,30.02,North,360,7.0,15.0,67,0.00,,,0.00,,2013-02-14 02:11:00,
2013-02-13 16:21:00,69.0,58.0,30.02,North,360,7.0,15.0,67,0.00,,,0.00,,2013-02-14 02:21:00,
2013-02-13 16:31:00,69.0,58.0,30.03,East,93,10.0,16.0,67,0.00,,,0.00,,2013-02-14 02:31:00,
2013-02-13 16:41:00,69.0,58.0,30.03,East,93,10.0,16.0,67,0.00,,,0.00,,2013-02-14 02:41:00,
2013-02-13 16:51:00,69.0,58.0,30.03,East,93,10.0,16.0,67,0.00,,,0.00,,2013-02-14 02:51:00,
2013-02-13 17:02:00,70.0,58.0,30.04,ENE,74,7.0,16.0,66,0.00,,,0.00,,2013-02-14 03:02:00,
2013-02-13 17:11:00,69.0,58.0,30.04,NNE,19,9.0,14.0,67,0.00,,,0.00,,2013-02-14 03:11:00,
2013-02-13 17:21:00,69.0,58.0,30.04,NNE,19,9.0,14.0,67,0.00,,,0.00,,2013-02-14 03:21:00,
2013-02-13 17:31:00,69.0,58.0,30.04,ENE,61,8.0,16.0,67,0.00,,,0.00,,2013-02-14 03:31:00,
2013-02-13 17:42:00,69.0,58.0,30.04,ENE,61,8.0,16.0,67,0.00,,,0.00,,2013-02-14 03:42:00,
2013-02-13 17:52:00,69.0,58.0,30.05,East,83,8.0,13.0,68,0.00,,,0.00,,2013-02-14 03:52:00,
2013-02-13 18:01:00,68.0,58.0,30.04,East,86,2.0,21.0,70,0.00,,,0.00,,2013-02-14 04:01:00,
2013-02-13 18:11:00,68.0,59.0,30.05,ENE,77,6.0,11.0,72,0.00,,,0.00,,2013-02-14 04:11:00,
2013-02-13 18:21:00,68.0,59.0,30.05,ENE,77,6.0,11.0,72,0.00,,,0.00,,2013-02-14 04:21:00,
2013-02-13 18:31:00,67.0,57.0,30.05,NNE,19,6.0,13.0,71,0.00,,,0.00,,2013-02-14 04:31:00,
2013-02-13 18:41:00,67.0,57.0,30.05,NNE,19,6.0,13.0,71,0.00,,,0.00,,2013-02-14 04:41:00,
2013-02-13 18:51:00,67.0,59.0,30.06,NNE,17,2.0,16.0,75,0.00,,,0.00,,2013-02-14 04:51:00,
2013-02-13 19:01:00,67.0,58.0,30.07,NNE,32,5.0,18.0,72,0.00,,,0.00,,2013-02-14 05:01:00,
2013-02-13 19:11:00,67.0,58.0,30.07,NNE,32,5.0,18.0,72,0.00,,,0.00,,2013-02-14 05:11:00,
2013-02-13 19:21:00,67.0,57.0,30.07,North,5,8.0,16.0,71,0.00,,,0.00,,2013-02-14 05:21:00,
2013-02-13 19:31:00,67.0,58.0,30.08,NE,55,3.0,9.0,72,0.00,,,0.00,,2013-02-14 05:31:00,
2013-02-13 19:41:00,67.0,58.0,30.08,NE,55,3.0,9.0,72,0.00,,,0.00,,2013-02-14 05:41:00,
2013-02-13 19:52:00,67.0,58.0,30.09,ENE,65,2.0,7.0,72,0.00,,,0.00,,2013-02-14 05:52:00,
2013-02-13 20:01:00,67.0,58.0,30.09,ENE,62,2.0,11.0,74,0.00,,,0.00,,2013-02-14 06:01:00,
2013-02-13 20:11:00,67.0,58.0,30.09,East,81,2.0,7.0,74,0.00,,,0.00,,2013-02-14 06:11:00,
2013-02-13 20:21:00,67.0,58.0,30.09,East,81,2.0,7.0,74,0.00,,,0.00,,2013-02-14 06:21:00,
2013-02-13 20:31:00,67.0,58.0,30.10,SW,230,1.0,4.0,73,0.00,,,0.00,,2013-02-14 06:31:00,
2013-02-13 20:41:00,67.0,58.0,30.10,SW,230,1.0,4.0,73,0.00,,,0.00,,2013-02-14 06:41:00,
2013-02-13 20:51:00,67.0,58.0,30.10,East,83,0.0,3.0,74,0.00,,,0.00,,2013-02-14 06:51:00,
2013-02-13 21:01:00,67.0,58.0,30.10,NNW,346,0.0,5.0,74,0.00,,,0.00,,2013-02-14 07:01:00,
2013-02-13 21:11:00,67.0,58.0,30.11,NE,55,3.0,11.0,74,0.00,,,0.00,,2013-02-14 07:11:00,
2013-02-13 21:21:00,67.0,58.0,30.11,NE,55,3.0,11.0,74,0.00,,,0.00,,2013-02-14 07:21:00,
2013-02-13 21:31:00,67.0,58.0,30.11,East,84,1.0,9.0,74,0.00,,,0.00,,2013-02-14 07:31:00,
2013-02-13 21:41:00,67.0,58.0,30.11,East,84,1.0,9.0,74,0.00,,,0.00,,2013-02-14 07:41:00,
2013-02-13 21:52:00,67.0,58.0,30.11,East,84,1.0,9.0,74,0.00,,,0.00,,2013-02-14 07:52:00,
2013-02-13 22:01:00,67.0,58.0,30.11,East,84,1.0,9.0,74,0.00,,,0.00,,2013-02-14 08:01:00,
2013-02-13 22:11:00,67.0,58.0,30.11,East,84,1.0,9.0,74,0.00,,,0.00,,2013-02-14 08:11:00,